#timestamp,LO_Frequency,Hit,StdDev 
1535907615.3,286046999.1,N
1535907635.1,286046998.9,N
1535907655.9,286046999.0,N
1535907675.7,286046999.3,N
1535907695.5,286046999.0,N
1535907715.4,286046998.7,N
1535907735.2,286046998.3,N
1535907755.0,286046998.3,N
1535907786.0,286046999.3,E
1535907795.9,286046998.8,N
1535907815.7,286047000.9,P
1535907835.6,286047000.5,N
1535907855.4,286047000.0,N
1535907875.3,286047000.5,N
1535907895.1,286046999.8,N
1535907896.0,286046999.8,N
1535907915.8,286047002.5,Y
1535907935.7,286047001.9,P
1535907955.5,286047001.8,N
1535907975.4,286047001.4,N
1535907995.2,286047001.3,N
1535908015.0,286047001.5,N
1535908015.9,286047001.5,N
1535908035.8,286047004.3,Y
1535908055.6,286047000.2,P
1535908075.4,286047000.2,N
1535908095.3,286047002.8,P
1535908115.1,286046999.7,N
1535908135.9,286047002.1,N
1535908155.7,286047001.6,N
1535908175.5,286047001.9,N
1535908195.4,286047001.9,N
1535908215.2,286047002.0,N
1535908235.1,286047001.7,N
1535908236.0,286047001.7,N
1535908255.8,286047001.8,N
1535908275.6,286047001.7,N
1535908295.5,286047002.6,Y
1535908315.3,286046999.9,P
1535908335.2,286046999.9,N
1535908355.9,286046999.8,N
1535908375.7,286046999.8,N
1535908395.6,286046999.8,N
1535908415.4,286047002.4,Y
1535908435.2,286047002.2,P
1535908455.1,286047001.8,N
1535908456.0,286047001.8,N
1535908475.8,286047002.1,N
1535908495.7,286047002.5,Y
1535908515.5,286047001.2,P
1535908535.3,286046998.7,P
1535908555.2,286046998.2,N
1535908575.0,286046998.4,N
1535908575.9,286046998.4,N
1535908595.8,286046999.5,N
1535908615.6,286046999.5,N
1535908635.4,286046999.3,N
1535908655.3,286046998.5,N
1535908675.1,286047000.9,N
1535908695.9,286047000.7,N
1535908715.7,286046999.9,N
1535908735.5,286047000.6,N
1535908755.4,286047001.2,N
1535908775.2,286046998.7,N
1535908795.0,286046998.7,N
1535908795.9,286046998.7,N
1535908815.8,286046996.6,Y
1535908835.6,286046999.3,P
1535908855.5,286046998.8,P
1535908875.3,286046999.0,P
1535908895.1,286046998.5,Y
1535908915.9,286047002.7,P
1535908935.7,286046999.7,N
1535908955.6,286047002.1,N
1535908975.4,286047002.0,N
1535908995.2,286047002.2,N
1535909015.1,286047001.9,N
1535909016.0,286047001.9,N
1535909035.8,286047002.6,N
1535909055.7,286047000.3,N
1535909075.5,286047000.1,N
1535909095.3,286046999.8,N
1535909115.2,286046999.7,N
1535909135.9,286047000.6,N
1535909155.7,286047000.0,N
1535909175.6,286047002.3,N
1535909195.4,286047002.4,N
1535909215.3,286047002.1,N
1535909235.1,286047002.6,N
1535909236.0,286047002.6,N
1535909255.8,286047001.5,N
1535909275.7,286047001.6,N
1535909295.5,286047002.2,N
1535909315.3,286047001.8,N
1535909335.2,286047001.5,N
1535909355.0,286047001.6,N
1535909355.9,286047001.6,N
1535909375.8,286047001.3,N
1535909395.6,286047004.3,Y
1535909415.4,286047002.6,P
1535909435.3,286047002.3,P
1535909455.1,286047002.5,P
1535909475.9,286047002.1,Y
1535909495.7,286046998.1,P
1535909515.5,286046998.1,N
1535909535.4,286047000.8,N
1535909555.2,286047000.8,N
1535909575.0,286047000.7,N
1535909575.9,286047000.7,N
1535909595.8,286046998.1,N
1535909615.6,286046998.3,N
1535909635.5,286046998.4,N
1535909655.3,286046999.0,N
1535909675.1,286046999.3,N
1535909695.9,286046999.4,N
1535909715.7,286046999.3,N
1535909735.6,286046999.1,N
1535909755.4,286046998.9,N
1535909775.2,286046999.5,N
1535909795.1,286046997.8,N
1535909796.0,286046997.8,N
1535909815.8,286046997.6,N
1535909835.6,286046997.9,N
1535909855.5,286046997.8,N
1535909875.3,286046998.0,N
1535909895.2,286046997.8,N
1535909915.9,286046997.6,N
1535909935.7,286046997.1,N
1535909955.6,286046999.0,N
1535909975.4,286046999.3,N
1535909995.2,286046998.3,N
1535910015.1,286046998.8,N
1535910016.0,286046998.8,N
1535910035.8,286046999.3,N
1535910055.7,286046996.5,Y
1535910075.5,286046998.2,P
1535910095.3,286046999.0,P
1535910115.2,286046999.3,N
1535910135.0,286046999.2,N
1535910135.9,286046999.2,N
1535910155.8,286046999.1,N
1535910175.6,286046998.9,Y
1535910195.4,286046998.5,P
1535910215.3,286047000.9,P
1535910235.1,286047001.1,N
1535910255.8,286047001.1,N
1535910275.7,286047000.5,N
1535910295.5,286047000.6,N
1535910315.4,286047001.2,N
1535910335.2,286047000.3,N
1535910355.0,286047000.8,N
1535910355.9,286047000.8,N
1535910375.8,286047001.1,N
1535910395.6,286047000.7,N
1535910415.4,286047000.0,N
1535910435.3,286047000.0,N
1535910455.1,286047000.4,N
1535910475.9,286047000.3,N
1535910495.7,286047001.0,N
1535910515.5,286047001.0,N
1535910535.4,286047000.5,N
1535910555.2,286047000.1,N
1535910575.0,286047000.5,N
1535910576.0,286047000.5,N
1535910595.8,286047000.5,N
1535910615.6,286047000.6,N
1535910635.5,286047001.0,N
1535910655.3,286047000.8,N
1535910675.1,286047001.2,N
1535910695.9,286046998.6,N
1535910715.7,286047000.7,N
1535910735.6,286046998.4,N
1535910755.4,286046998.5,N
1535910775.2,286046998.4,N
1535910795.1,286046998.7,N
1535910796.0,286046998.7,N
1535910815.8,286046998.3,N
1535910835.6,286047001.2,N
1535910855.5,286046999.4,N
1535910875.3,286046998.7,N
1535910895.2,286046998.8,N
1535910915.9,286046996.6,Y
1535910935.7,286046996.7,P
1535910955.6,286046999.5,N
1535910975.4,286046999.5,N
1535910995.2,286046997.1,N
1535911015.1,286046996.8,N
1535911016.0,286046996.8,N
1535911035.8,286046997.1,N
1535911055.7,286046997.6,N
1535911075.5,286046997.5,N
1535911095.3,286046997.9,N
1535911115.2,286046997.4,N
1535911135.0,286046997.4,N
1535911135.9,286046997.4,N
1535911155.8,286046995.0,Y
1535911175.6,286046999.3,P
1535911195.4,286046998.5,N
